TimePST,TemperatureF,Dew PointF,Humidity,Sea Level PressureIn,VisibilityMPH,Wind Direction,Wind SpeedMPH,Gust SpeedMPH,PrecipitationIn,Events,Conditions,WindDirDegrees,DateUTC
12:15 AM,35.6,35.6,100,29.98,3.0,Calm,Calm,-,N/A,,Partly Cloudy,0,2013-11-21 08:15:00
12:35 AM,35.6,33.8,93,29.98,2.0,Calm,Calm,-,N/A,,Scattered Clouds,0,2013-11-21 08:35:00
12:55 AM,35.6,35.6,100,29.99,9.0,NNE,3.5,-,N/A,,Scattered Clouds,20,2013-11-21 08:55:00
1:15 AM,35.6,32.0,87,29.99,4.0,NNE,3.5,-,N/A,,Partly Cloudy,30,2013-11-21 09:15:00
1:35 AM,33.8,32.0,93,30.00,6.0,Calm,Calm,-,N/A,,Partly Cloudy,0,2013-11-21 09:35:00
1:55 AM,33.8,32.0,93,30.00,5.0,Calm,Calm,-,N/A,,Partly Cloudy,0,2013-11-21 09:55:00
2:15 AM,32.0,32.0,100,30.01,5.0,Calm,Calm,-,N/A,,Partly Cloudy,0,2013-11-21 10:15:00
2:35 AM,32.0,32.0,100,30.02,3.0,Calm,Calm,-,N/A,,Partly Cloudy,0,2013-11-21 10:35:00
2:55 AM,32.0,32.0,100,30.03,5.0,Calm,Calm,-,N/A,,Scattered Clouds,0,2013-11-21 10:55:00
3:15 AM,32.0,32.0,100,30.03,6.0,North,3.5,-,N/A,,Mostly Cloudy,10,2013-11-21 11:15:00
3:35 AM,32.0,30.2,93,30.04,8.0,Calm,Calm,-,N/A,,Scattered Clouds,0,2013-11-21 11:35:00
3:55 AM,32.0,30.2,93,30.05,7.0,Calm,Calm,-,N/A,,Scattered Clouds,0,2013-11-21 11:55:00
4:15 AM,32.0,30.2,93,30.05,9.0,Calm,Calm,-,N/A,,Mostly Cloudy,0,2013-11-21 12:15:00
4:35 AM,32.0,30.2,93,30.06,10.0,Calm,Calm,-,N/A,,Mostly Cloudy,0,2013-11-21 12:35:00
4:55 AM,32.0,30.2,93,30.07,10.0,Calm,Calm,-,N/A,,Overcast,0,2013-11-21 12:55:00
5:15 AM,32.0,30.2,93,30.09,0.2,Calm,Calm,-,N/A,,Overcast,0,2013-11-21 13:15:00
5:35 AM,32.0,30.2,93,30.10,0.2,Calm,Calm,-,N/A,,Overcast,0,2013-11-21 13:35:00
5:55 AM,32.0,30.2,93,30.10,0.2,Calm,Calm,-,N/A,,Overcast,0,2013-11-21 13:55:00
6:15 AM,30.2,28.4,93,30.11,0.2,Calm,Calm,-,N/A,,Overcast,0,2013-11-21 14:15:00
6:35 AM,30.2,28.4,93,30.12,0.2,Calm,Calm,-,N/A,,Overcast,0,2013-11-21 14:35:00
6:55 AM,30.2,28.4,93,30.13,0.2,Calm,Calm,-,N/A,,Overcast,0,2013-11-21 14:55:00
7:15 AM,28.4,28.4,100,30.14,0.2,Calm,Calm,-,N/A,,Overcast,0,2013-11-21 15:15:00
7:35 AM,28.4,26.6,93,30.14,2.5,Calm,Calm,-,N/A,,Scattered Clouds,0,2013-11-21 15:35:00
7:55 AM,28.4,28.4,100,30.15,0.2,Calm,Calm,-,N/A,,Overcast,0,2013-11-21 15:55:00
8:15 AM,28.4,28.4,100,30.15,0.2,Calm,Calm,-,N/A,,Overcast,0,2013-11-21 16:15:00
8:35 AM,28.4,28.4,100,30.16,0.2,Calm,Calm,-,N/A,,Overcast,0,2013-11-21 16:35:00
8:55 AM,32.0,30.2,93,30.17,0.2,Calm,Calm,-,N/A,,Overcast,0,2013-11-21 16:55:00
9:15 AM,32.0,32.0,100,30.17,0.2,Calm,Calm,-,N/A,,Overcast,0,2013-11-21 17:15:00
9:35 AM,32.0,32.0,100,30.17,0.2,SW,3.5,-,N/A,,Overcast,220,2013-11-21 17:35:00
9:55 AM,32.0,32.0,100,30.18,0.2,South,3.5,-,N/A,,Overcast,190,2013-11-21 17:55:00
10:15 AM,33.8,32.0,93,30.18,0.2,SW,3.5,-,N/A,,Overcast,230,2013-11-21 18:15:00
10:35 AM,37.4,37.4,100,30.17,10.0,Calm,Calm,-,N/A,,Partly Cloudy,0,2013-11-21 18:35:00
10:55 AM,42.8,32.0,66,30.17,10.0,NE,6.9,-,N/A,,Clear,50,2013-11-21 18:55:00
11:15 AM,48.2,26.6,43,30.17,10.0,Calm,Calm,-,N/A,,Clear,0,2013-11-21 19:15:00
11:35 AM,50.0,17.6,28,30.17,10.0,Calm,Calm,-,N/A,,Clear,0,2013-11-21 19:35:00
11:55 AM,51.8,14.0,22,30.16,10.0,NE,8.1,-,N/A,,Clear,50,2013-11-21 19:55:00
12:15 PM,53.6,10.4,18,30.17,10.0,NE,6.9,-,N/A,,Clear,50,2013-11-21 20:15:00
12:35 PM,53.6,12.2,19,30.16,10.0,ENE,5.8,-,N/A,,Clear,70,2013-11-21 20:35:00
12:55 PM,53.6,10.4,18,30.16,10.0,NE,8.1,-,N/A,,Clear,50,2013-11-21 20:55:00
1:15 PM,55.4,10.4,17,30.16,10.0,ENE,4.6,-,N/A,,Clear,60,2013-11-21 21:15:00
1:35 PM,55.4,8.6,15,30.17,10.0,ENE,5.8,17.3,N/A,,Clear,60,2013-11-21 21:35:00
1:55 PM,55.4,6.8,14,30.17,10.0,NE,10.4,24.2,N/A,,Clear,50,2013-11-21 21:55:00
2:15 PM,55.4,6.8,14,30.17,10.0,ENE,5.8,-,N/A,,Clear,60,2013-11-21 22:15:00
2:35 PM,55.4,5.0,13,30.17,10.0,NE,9.2,17.3,N/A,,Clear,50,2013-11-21 22:35:00
2:55 PM,55.4,5.0,13,30.17,10.0,NE,9.2,23.0,N/A,,Clear,50,2013-11-21 22:55:00
3:15 PM,55.4,5.0,13,30.18,10.0,NE,8.1,16.1,N/A,,Clear,50,2013-11-21 23:15:00
3:35 PM,53.6,6.8,15,30.19,10.0,East,3.5,-,N/A,,Clear,80,2013-11-21 23:35:00
3:55 PM,53.6,6.8,15,30.19,10.0,NE,4.6,-,N/A,,Clear,50,2013-11-21 23:55:00
4:15 PM,51.8,6.8,16,30.20,10.0,NE,5.8,-,N/A,,Clear,50,2013-11-22 00:15:00
4:35 PM,50.0,5.0,16,30.19,10.0,ENE,4.6,-,N/A,,Clear,60,2013-11-22 00:35:00
4:55 PM,48.2,5.0,17,30.20,10.0,NNE,3.5,-,N/A,,Clear,30,2013-11-22 00:55:00
5:15 PM,48.2,5.0,17,30.20,10.0,East,3.5,-,N/A,,Scattered Clouds,80,2013-11-22 01:15:00
5:35 PM,48.2,5.0,17,30.21,10.0,Calm,Calm,-,N/A,,Mostly Cloudy,0,2013-11-22 01:35:00
5:55 PM,46.4,6.8,20,30.21,10.0,East,3.5,-,N/A,,Mostly Cloudy,80,2013-11-22 01:55:00
6:15 PM,44.6,8.6,23,30.22,10.0,East,4.6,-,N/A,,Mostly Cloudy,80,2013-11-22 02:15:00
6:35 PM,46.4,6.8,20,30.22,10.0,ENE,5.8,-,N/A,,Mostly Cloudy,70,2013-11-22 02:35:00
6:55 PM,46.4,5.0,18,30.23,10.0,NE,3.5,-,N/A,,Mostly Cloudy,50,2013-11-22 02:55:00
7:15 PM,46.4,3.2,17,30.23,10.0,ENE,4.6,-,N/A,,Mostly Cloudy,60,2013-11-22 03:15:00
7:35 PM,44.6,8.6,23,30.23,10.0,NNE,3.5,-,N/A,,Mostly Cloudy,30,2013-11-22 03:35:00
7:55 PM,39.2,15.8,39,30.24,10.0,North,5.8,-,N/A,,Mostly Cloudy,10,2013-11-22 03:55:00
8:15 PM,35.6,19.4,52,30.24,10.0,Calm,Calm,-,N/A,,Mostly Cloudy,0,2013-11-22 04:15:00
8:35 PM,33.8,21.2,60,30.24,10.0,NNE,3.5,-,N/A,,Mostly Cloudy,30,2013-11-22 04:35:00
8:55 PM,33.8,19.4,56,30.24,10.0,NNE,4.6,-,N/A,,Scattered Clouds,20,2013-11-22 04:55:00
9:15 PM,35.6,19.4,52,30.25,10.0,NNE,5.8,-,N/A,,Mostly Cloudy,20,2013-11-22 05:15:00
9:35 PM,35.6,15.8,44,30.25,10.0,Calm,Calm,-,N/A,,Scattered Clouds,0,2013-11-22 05:35:00
9:55 PM,35.6,15.8,44,30.25,10.0,ENE,3.5,-,N/A,,Scattered Clouds,70,2013-11-22 05:55:00
10:15 PM,42.8,6.8,23,30.26,10.0,Calm,Calm,-,N/A,,Scattered Clouds,0,2013-11-22 06:15:00
10:35 PM,42.8,6.8,23,30.26,10.0,SE,3.5,-,N/A,,Scattered Clouds,140,2013-11-22 06:35:00
10:55 PM,44.6,5.0,20,30.26,10.0,ESE,4.6,-,N/A,,Scattered Clouds,120,2013-11-22 06:55:00
11:15 PM,44.6,5.0,20,30.26,10.0,SE,3.5,-,N/A,,Mostly Cloudy,130,2013-11-22 07:15:00
11:35 PM,46.4,-2.2,13,30.26,10.0,Calm,Calm,-,N/A,,Mostly Cloudy,0,2013-11-22 07:35:00
11:55 PM,46.4,-2.2,13,30.25,10.0,SE,3.5,-,N/A,,Mostly Cloudy,130,2013-11-22 07:55:00